www.pogodaiklimat.ru

Погода и климат >> Архив погоды >> Россия >> Краснодарский край >> Новороссийск


АРХИВ ПОГОДЫ в Новороссийске

Время (UTC), дата Ветер
(напр.,м/с)
 
Видим.   Явления Облачность Т
(С)
Тd
(С)
f
(%)
Тe
(С)
Тes
(С)
Комфортность P
(гПа)
Po
(гПа)
Тmin
(С)
Tmax
(С)
R
(мм)
R24
(мм)
S
(см)
12 10.11 Ю 2 20 км 1/1 1000 м
[Cu hum]
+16.0 +7.6 57 +16 +18 тепло 1021.4 1020.1
15 10.11 СВ 2 10 км ясно +12.3 +6.7 69 +11 +11 тепло 1021.3 1020.0 +16.7
18 10.11 штиль 0 10 км ясно +9.1 +5.7 79 +8 +8 по сезону 1021.6 1020.2
21 10.11 СВ 1 10 км ясно +7.9 +4.8 81 +7 +7 по сезону 1022.2 1020.8
00 11.11 штиль 0 10 км 10/10 600 м
[Sc]
+8.7 +6.3 85 +8 +8 тепло 1022.3 1020.9
03 11.11 СВ 4 10 км 8/8 600 м
[Sc]
+7.6 +2.8 72 +4 +4 по сезону 1022.2 1020.9 +7.3
06 11.11 СВ 3
{10}
20 км 3/3 600 м
[Sc]
+8.4 +2.0 64 +6 +6 по сезону 1023.1 1021.8 +7.0
09 11.11 ЮЗ 2 20 км 4/0
[Ci fib]
+12.1 +4.9 61 +11 +15 тепло 1023.2 1021.9
12 11.11 СВ 5 20 км 9/8 600 м
[Sc Ci fib]
+10.7 +4.4 65 +8 +8 по сезону 1023.1 1021.8
15 11.11 СВ 6
{11}
10 км 10/10 600 м
[Sc]
+7.9 +3.3 73 +4 +4 прохладно 1023.6 1022.2 +13.8
18 11.11 СВ 7-13
{13}
10 км 10/10 600 м
[Sc]
+7.9 +2.7 70 +4 +4 по сезону 1023.9 1022.6
21 11.11 СВ 8-14
{15}
10 км 10/10 600 м
[Sc]
+7.2 +3.1 75 +2 +2 по сезону 1024.4 1023.0
00 12.11 СВ 10-16
{17}
10 км 10/10 600 м
[Sc]
+6.1 +1.2 71 0 0 прохладно 1024.6 1023.2
03 12.11 СВ 10-18
{18}
10 км 10/10 600 м
[Sc]
+3.8 -1.1 70 -3 -3 холодно 1025.4 1024.0 +3.8
06 12.11 СВ 12-20
{22}
20 км 8/8 600 м
[Sc]
+2.7 -2.4 69 -5 -5 очень
холодно
1026.5 1025.1 +2.7
09 12.11 СВ 12-20
{23}
20 км 3/3 600 м
[Sc Ac trans]
+3.3 -1.8 69 -4 -4 очень
холодно
1026.8 1025.4
12 12.11 СВ 14-22
{24}
20 км 3/3 600 м
[Sc]
+2.8 -1.8 72 -5 -5 очень
холодно
1026.3 1024.9
15 12.11 СВ 15-23
{24}
10 км 3/3 600 м
[Sc]
+0.8 -2.7 77 -8 -8 очень
холодно
1027.1 1025.7 +3.8
18 12.11 СВ 11-19
{23}
10 км 3/3 600 м
[Sc]
+0.1 -3.3 78 -8 -8 очень
холодно
1027.5 1026.1
21 12.11 СВ 10-16
{19}
10 км 10/10 600 м
[Sc]
-0.5 -4.0 77 -9 -9 очень
холодно
1027.8 1026.4
00 13.11 СВ 9-18
{21}
10 км 8/8 600 м
[Sc]
-1.9 -4.9 80 -10 -10 очень
холодно
1027.4 1025.9
03 13.11 СВ 11-18
{22}
10 км 5/5 600 м
[Sc]
-2.5 -5.8 78 -12 -12 очень
холодно
1027.9 1026.5 -2.5
06 13.11 СВ 14-19
{22}
20 км 8/8 300 м
[St]
-2.2 -6.0 75 -12 -12 очень
холодно
1027.8 1026.4 -2.7
09 13.11 СВ 12-18
{22}
20 км 4/4 300 м
[St]
-1.0 -6.0 69 -10 -10 очень
холодно
1028.2 1026.8
12 13.11 СВ 12-17
{20}
20 км 5/5 300 м
[St]
-0.5 -5.7 68 -9 -9 очень
холодно
1027.8 1026.3
15 13.11 СВ 10-17
{20}
20 км 9/9 300 м
[St]
-1.5 -5.6 74 -10 -10 очень
холодно
1027.6 1026.2 -0.1
18 13.11 СВ 10-15
{17}
10 км 9/9 300 м
[St]
-0.4 -4.8 72 -8 -8 очень
холодно
1026.7 1025.3
21 13.11 СВ 9-14
{19}
10 км 10/10 300 м
[St]
+0.9 -3.0 75 -6 -6 очень
холодно
1026.0 1024.6
00 14.11 СВ 8-13
{15}
10 км 4/4 300 м
[St]
+2.9 -1.8 71 -3 -3 холодно 1024.9 1023.5
03 14.11 СВ 10-15
{16}
10 км 10/10 300 м
[St]
+3.5 -1.1 72 -3 -3 холодно 1024.0 1022.6 -1.5
06 14.11 СВ 11-18
{18}
20 км 8/8 600 м
[Sc]
+3.1 -0.7 76 -4 -4 очень
холодно
1023.5 1022.1
09 14.11 СВ 8-14
{18}
20 км 9/9 600 м
[Sc]
+5.0 -0.3 69 -1 -1 холодно 1022.9 1021.5
12 14.11 СВ 9-16
{18}
20 км 3/3 600 м
[Sc Ci fib]
+4.8 -0.2 70 -1 -1 очень
холодно
1021.6 1020.2
15 14.11 СВ 8-15
{19}
10 км 6/4 600 м
[Sc Ci fib]
+4.0 +0.3 77 -2 -2 очень
холодно
1021.0 1019.6 +5.1
18 14.11 СВ 8-14
{17}
10 км 3/3 600 м
[Sc]
+4.1 +0.4 77 -2 -2 холодно 1019.9 1018.5
21 14.11 СВ 8-13
{15}
10 км 3/3 600 м
[Sc]
+4.2 +0.6 77 -2 -2 холодно 1018.5 1017.1
00 15.11 СВ 7-13
{15}
10 км ясно +4.1 +0.7 78 -2 -2 холодно 1017.2 1015.8
03 15.11 СВ 8-15
{16}
10 км 1/1 600 м
[Sc]
+4.1 +1.0 80 -2 -2 холодно 1016.2 1014.8 +3.8
06 15.11 СВ 8-16
{18}
20 км 10/10 600 м
[Sc]
+4.0 +0.7 79 -2 -2 холодно 1017.0 1015.6
09 15.11 СВ 9-17
{17}
20 км слабый ливневой дождь 10/10 600 м
[Cb cap]
+4.3 +0.5 76 -2 -2 очень
холодно
1016.4 1015.0
12 15.11 СВ 8-14
{17}
20 км слабый ливневой дождь 10/10 600 м
[Cb cap]
+4.5 +0.9 77 -1 -1 очень
холодно
1016.8 1015.5
15 15.11 СВ 9-15
{17}
10 км слабый ливневой дождь 10/10 600 м
[Cb cap]
+4.0 +0.7 79 -2 -2 очень
холодно
1017.3 1015.9 +4.8 0.7
18 15.11 СВ 12-19
{19}
10 км {ливн. осадки} 10/10 600 м
[Cb calv]
+3.2 +0.5 82 -4 -4 очень
холодно
1017.2 1015.9
21 15.11 СВ 11-20
{20}
10 км слабый ливневой дождь 10/10 600 м
[Cb cap]
+3.1 +0.1 81 -4 -4 очень
холодно
1016.1 1014.7
00 16.11 СВ 9-15
{21}
10 км {ливн. осадки} 10/10 600 м
[Cb calv]
+4.0 +0.4 77 -2 -2 холодно 1016.9 1015.5
03 16.11 В 4
{15}
10 км слабый ливневой дождь 10/10 600 м
[Cb cap]
+8.4 +4.3 75 +5 +5 по сезону 1018.1 1016.7 +2.9 6
06 16.11 СВ 8-14
{16}
20 км {ливн. осадки} 9/9 600 м
[Cb cap]
+6.8 +2.1 72 +2 +2 по сезону 1019.3 1018.0
09 16.11 СВ 8-14
{15}
20 км 8/5 600 м
[Cu Sc Ac trans Ci fib]
+6.8 +2.3 73 +2 +2 прохладно 1020.6 1019.2
12 16.11 СВ 12-18
{20}
20 км 6/3 600 м
[Sc Ac trans Cc]
+4.6 +1.0 77 -2 -2 очень
холодно
1020.5 1019.1
15 16.11 СВ 13-20
{23}
10 км 6/3 600 м
[Sc Ac trans Ci fib]
+3.7 +0.4 79 -4 -4 очень
холодно
1020.4 1019.0 +8.4 0.4
18 16.11 СВ 13-21
{24}
10 км 8/3 600 м
[Sc Ci fib]
+2.9 -0.9 76 -5 -5 очень
холодно
1021.2 1019.8
21 16.11 СВ 11-19
{23}
10 км 8/5 600 м
[Sc Ci fib]
+2.5 -0.7 79 -5 -5 очень
холодно
1021.2 1019.8
00 17.11 СВ 10-19
{22}
10 км 8/8 600 м
[Sc]
+2.0 -0.8 82 -5 -5 очень
холодно
1022.2 1020.8
03 17.11 СВ 8-15
{19}
10 км слабый ливневой дождь 10/10 600 м
[Cb cap]
+2.7 -0.7 78 -4 -4 холодно 1023.5 1022.1 +1.9 4
06 17.11 СВ 7-12
{18}
10 км в посл. час ливневой дождь 10/4 600 м
[Cb calv As op]
+2.8 -0.7 78 -3 -3 холодно 1025.1 1023.7

 

Местоположение метеостанции Новороссийск (Краснодарский край, Россия): широта 44.72 долгота 37.85 высота над уровнем моря 3 м.

В архиве по умолчанию представлена погода в Новороссийске за последнюю неделю. Архивные данные за месяц целиком и за предыдущие месяцы, начиная с января 2011 года, Вы можете получить, выбрав интересующий диапазон дат из раскрывающегося списка и нажав кнопку "Ввод!".


*Определитесь, кто Вы:
робот инопланетянин человек

Внимание! Время в таблицах - всемирное. Для получения местного времени необходимо прибавить поправку, которая в Новороссийске равна 3 ч.

Смотрите также архив погоды в соседних городах и на ближайших метеорологических станциях:

Погода в Геленджике (Краснодарский край, Россия) (25 км)
Погода в Крымске (Краснодарский край, Россия) (25 км)
Погода в Анапе (Краснодарский край, Россия) (48 км)
Погода в Славянске-на-Кубани (Краснодарский край, Россия) (66 км)
Погода в Темрюке (Краснодарский край, Россия) (76 км)
Погода в Джубге (Краснодарский край, Россия) (81 км)
Погода в Горячем Ключе (Краснодарский край, Россия) (99 км)
Погода в Краснодаре (Краснодарский край, Россия) (100 км)
Погода в Тамани (Краснодарский край, Россия) (105 км)
Погода в Туапсе (Краснодарский край, Россия) (119 км)

Пояснения к столбцам:

Ветер - указаны скорость ветра в м/с - средняя за 10 мин, порывы в срок и между сроками (в фигурных скобках) и направление, откуда дует ветер: С - северный, СВ - северо-восточный, В - восточный, ЮВ - юго-восточный, Ю - южный, ЮЗ - юго-западный, З - западный, СЗ - северо-западный.
Видимость - горизонтальная дальность видимости в метрах или километрах. При видимости от 1 до 10 км при отсутствии осадков обычно наблюдается дымка, при ухудшении видимости до 1 км и менее - туман. В сухую погоду видимость может ухудшаться дымом, пылью или мглою.
Явления - указаны атмосферные явления, наблюдавшиеся в срок или в последний час перед сроком; фигурными скобками обозначены явления, наблюдавшиеся между сроками (за 1-3 часа до срока); квадратными скобками обозначены град или гололедные отложения с указанием их диаметра в мм.
Облачность - указаны через наклонную черту общая и нижняя облачность в баллах и высота нижней границы облаков в метрах; квадратными скобками обозначены формы облаков: Ci - перистые, Cs - перисто-слоистые, Cc - перисто-кучевые, Ac - высококучевые, As - высокослоистые, Sc - слоисто-кучевые, Ns - слоисто-дождевые, Cu - кучевые, Cb - кучево-дождевые. Подробнее классификацию облаков см. в Атласе облаков (PDF).
T - Температура воздуха - температура, измеренная на высоте 2 м над землей.
Td - Температура точки росы - температура, при понижении до которой содержащийся в воздухе водяной пар достигнет насыщения.
f - Относительная влажность воздуха - влажноcть воздуха, измеренная на высоте 2 м над землей.
Te - Эффективная температура - температура, которую ощущает одетый по сезону человек в тени. Характеристика душности погоды. При расчете учитывается влияние влажности воздуха и скорости ветра на теплоощущения человека.
Tes - Эффективная температура на солнце - температура, которую ощущает человек, с поправкой на солнечный нагрев. Характеристика знойности погоды. Зависит от высоты солнца над горизонтом, облачности и скорости ветра. Ночью, в пасмурную погоду, а также при ветре 12 м/с и более поправка равна нулю.
P - Атмосферное давление - приведенное к уровню моря атмосферное давление.
Po - Атмосферное давление - измеренное на уровне метеостанции атмосферное давление.
Tmin - Минимальная температура - минимум температуры воздуха на высоте 2 м над землей.
Tmax - Максимальная температура - максимум температуры воздуха на высоте 2 м над землей.
R - Количество осадков - Количество выпавших осадков за период времени, мм. При наведении курсора мыши на число - период времени, за который выпало указанное количество осадков.
R24 - Количество осадков - Количество выпавших осадков за 24 часа, мм.
S - Снежный покров - Высота снежного покрова, см. При наведении курсора мыши на число - состояние снежного покрова и степень покрытия местности в баллах.